www.pogodaiklimat.ru
ПОГОДА в Нурмиярви
Время
(UTC), дата
19 4.12
20 4.12
21 4.12
22 4.12
23 4.12
00 5.12
01 5.12
02 5.12
03 5.12
04 5.12
05 5.12
06 5.12
07 5.12
08 5.12
09 5.12
10 5.12
11 5.12
12 5.12
13 5.12
14 5.12
15 5.12
16 5.12
17 5.12
18 5.12
19 5.12
20 5.12
21 5.12
22 5.12
23 5.12
00 6.12
01 6.12
02 6.12
03 6.12
04 6.12
05 6.12
06 6.12
07 6.12
08 6.12
09 6.12
10 6.12
11 6.12
12 6.12
13 6.12
14 6.12
15 6.12
16 6.12
17 6.12
18 6.12
19 6.12
20 6.12
21 6.12
22 6.12
23 6.12
00 7.12
01 7.12
02 7.12
03 7.12
04 7.12
05 7.12
06 7.12
07 7.12
08 7.12
09 7.12
10 7.12
11 7.12
12 7.12
13 7.12
14 7.12
15 7.12
16 7.12
17 7.12
18 7.12
19 7.12
20 7.12
21 7.12
22 7.12
23 7.12
00 8.12
01 8.12
02 8.12
03 8.12
04 8.12
05 8.12
06 8.12
07 8.12
08 8.12
09 8.12
10 8.12
11 8.12
12 8.12
13 8.12
14 8.12
15 8.12
16 8.12
17 8.12
18 8.12
19 8.12
20 8.12
21 8.12
22 8.12
23 8.12
00 9.12
01 9.12
02 9.12
03 9.12
04 9.12
06 9.12
07 9.12
08 9.12
09 9.12
10 9.12
11 9.12
12 9.12
13 9.12
14 9.12
15 9.12
16 9.12
17 9.12
18 9.12
19 9.12
20 9.12
21 9.12
22 9.12
23 9.12
00 10.12
01 10.12
02 10.12
03 10.12
04 10.12
05 10.12
06 10.12
07 10.12
08 10.12
09 10.12
10 10.12
11 10.12
12 10.12
13 10.12
14 10.12
15 10.12
16 10.12
17 10.12
18 10.12
19 10.12
20 10.12
21 10.12
22 10.12
23 10.12
00 11.12
01 11.12
02 11.12
03 11.12
04 11.12
05 11.12
06 11.12
07 11.12
08 11.12
09 11.12
10 11.12
11 11.12
12 11.12
13 11.12
14 11.12
15 11.12
16 11.12
17 11.12
18 11.12
Ветер
(напр.,м/с)
Видим. Явления Облачность Т
(С)
Тd
(С)
f
(%)
Тe
(С)
Тes
(С)
Комфортность P
(гПа)
Po
(гПа)
Тmin
(С)
Tmax
(С)
R
(мм)
R24
(мм)
S
(см)
27 км 8/0
[]
+1.1 1005.5 991.4
35 км ясно +1.4 1005.3 991.3
15 км 5/0 50 м
[]
+1.5 1004.4 990.3
2400 м в посл. час туман 10/0 50 м
[]
+2.5 1004.4 990.4
6000 м дымка 10/0 50 м
[]
+2.9 1004.0 990.1
3200 м дымка 9/0 50 м
[]
+3.0 1003.3 989.4
4400 м дымка 10/0 50 м
[]
+3.3 1002.7 988.8
9000 м дымка 10/0 100 м
[]
+3.6 1002.3 988.4
12 км 10/0 100 м
[]
+3.9 1002.1 988.2
17 км 10/0 200 м
[]
+4.4 1001.4 987.6
24 км 9/0 300 м
[]
+4.8 +4.4 97 1000.6 986.8
27 км 10/0 300 м
[]
+4.3 +3.2 93 1000.8 987.0 +0.7 +4.9 <0.5
29 км 10/0 300 м
[]
+4.2 +3.2 93 1000.6 986.8
25 км 10/0 300 м
[]
+4.4 +3.5 94 1000.3 986.5
20 км 10/0 300 м
[]
+4.5 +3.6 94 999.7 985.9
23 км 10/0 300 м
[]
+4.7 +3.7 93 998.9 985.1
27 км 10/0 300 м
[]
+4.9 +3.9 93 997.7 983.9
25 км 10/0 300 м
[]
+5.3 +4.1 92 996.8 983.1
35 км 9/0 300 м
[]
+5.4 +4.0 91 996.1 982.4
40 км 10/0 600 м
[]
+5.6 +3.2 85 995.7 982.0
35 км {ливн. осадки, туман} 9/0 600 м
[]
+5.5 +2.8 83 995.2 981.5
40 км в посл. час морось 9/0 600 м
[]
+5.4 +2.5 82 995.1 981.4
35 км 10/0 600 м
[]
+5.6 +2.6 81 994.8 981.1
40 км {ливн. осадки, дождь} 9/9 600 м
[]
+5.5 +2.8 83 994.4 980.7 +3.9 +5.8
40 км 9/0 600 м
[]
+5.6 +2.9 83 993.5 979.8
40 км 10/0 600 м
[]
+5.6 +3.0 83 993.2 979.6
35 км 10/0 600 м
[]
+5.8 +2.9 82 992.9 979.3
24 км слаб. морось 10/0 600 м
[]
+5.7 +3.3 85 992.4 978.8
19 км слаб. ливневой дождь 10/0 600 м
[]
+5.6 +3.5 86 992.0 978.3
16 км слаб. морось {дождь} 10/0 300 м
[]
+5.3 +3.8 90 991.6 978.0
24 км 10/0 300 м
[]
+5.1 +4.0 93 991.1 977.5
24 км 10/0 300 м
[]
+5.4 +3.8 89 990.6 976.9
24 км {морось} 10/0 600 м
[]
+5.7 +3.6 86 989.8 976.2
11 км слаб. дождь 10/0 200 м
[]
+4.9 +4.9 100 989.3 975.6 0.1
7000 м слаб. ливневой дождь 10/0 300 м
[]
+4.8 +4.8 100 988.5 974.8
11 км морось {ливн. осадки, снег} 10/0 200 м
[]
+4.1 987.9 974.3 +4.1 +5.9 0.5 <0.5
15 км морось 10/0 200 м
[]
+3.7 987.5 973.9 0.5
7000 м слаб. дождь 10/0 200 м
[]
+3.7 987.2 973.5 0.7
9000 м слаб. дождь {морось} 10/0 200 м
[]
+3.6 986.9 973.2 0.7
14 км слаб. дождь 10/0 100 м
[]
+3.7 986.3 972.7 0.4
26 км слаб. дождь 10/0 200 м
[]
+3.7 985.9 972.3 0.4
6000 м слаб. дождь {морось} 10/0 100 м
[]
+3.9 986.0 972.3 0.2
8000 м в посл. час морось 10/0 100 м
[]
+4.0 985.8 972.2 0.1
7000 м слаб. ливневой дождь 10/0 100 м
[]
+4.2 986.1 972.5
9000 м дымка {ливн. осадки, дождь} 10/0 100 м
[]
+4.3 986.7 973.1
14 км в посл. час морось 9/9 100 м
[]
+4.3 987.1 973.5
3900 м дымка 10/0 100 м
[]
+4.6 987.9 974.2
35 км в посл. час снег {ливн. осадки, дождь} 9/0 100 м
[]
+4.4 987.9 974.3 +3.5 +4.6
22 км 10/0 200 м
[]
+4.4 988.8 975.1
23 км в посл. час осадки 10/0 200 м
[]
+4.2 989.0 975.3
4100 м морось {ливн. осадки} 10/0 200 м
[]
+4.1 990.0 976.3
17 км в посл. час морось 10/0 200 м
[]
+3.9 990.3 976.5 0.1
50 км 9/9 200 м
[]
+3.4 991.0 977.3
50 км {ливн. осадки, морось} 9/9 200 м
[]
+3.6 991.4 977.7
40 км 9/0 100 м
[]
+3.4 991.7 978.0
50 км 10/0 200 м
[]
+3.2 991.5 977.8
45 км 9/9 200 м
[]
+3.1 991.1 977.4
16 км слаб. дождь 10/10 50 м
[]
+3.0 990.4 976.7
1300 м сильн. морось 10/0 50 м
[]
+2.9 989.6 975.8 0.4
1900 м дождь {морось} 10/0 50 м
[]
+3.4 988.4 974.7 +2.7 +4.4 2 <0.5
3900 м дождь 10/0 50 м
[]
+5.0 987.5 973.9 2
3000 м дождь 10/0 100 м
[]
+5.6 986.8 973.2 1
4100 м слаб. дождь {морось} 10/0 100 м
[]
+5.6 986.0 972.5 0.4
2600 м слаб. дождь 10/0 100 м
[]
+5.6 985.1 971.5 0.3
2900 м сильн. морось 10/0 100 м
[]
+5.6 984.3 970.8 0.4
3900 м слаб. дождь {морось} 10/0 100 м
[]
+5.5 983.6 970.0 0.3
3500 м слаб. дождь 10/0 100 м
[]
+5.5 982.6 969.0 0.4
2900 м слаб. ливневой дождь 10/0 100 м
[]
+5.6 982.0 968.5 0.3
5000 м в посл. час снег {ливн. осадки, дождь} 10/0 100 м
[]
+5.7 981.2 967.8 0.1
4600 м слаб. дождь 9/0 100 м
[]
+5.9 980.6 967.1 0.2
6000 м слаб. ливневой дождь 10/0 100 м
[]
+5.8 980.3 966.9 0.4
50 км в посл. час снег {ливн. осадки, дождь} 9/0 300 м
[]
+5.2 979.9 966.4 +3.4 +6.0 0.1
24 км 10/0 200 м
[]
+4.4 979.7 966.2
6000 м слаб. дождь 10/0 100 м
[]
+2.8 980.5 966.8 0.1
19 км ливневой дождь 10/0 200 м
[]
+1.1 981.5 967.8
50 км 10/0 200 м
[]
+1.3 982.2 968.5
50 км 10/0 200 м
[]
+1.3 983.2 969.5
13 км морось {ливн. осадки, дождь} 10/0 200 м
[]
+1.2 984.2 970.4
50 км в посл. час дождь 10/0 300 м
[]
+1.2 +1.2 100 984.9 971.1
45 км 9/0 300 м
[]
+0.9 +0.8 99 985.9 972.1
26 км слаб. ливневой снег 9/0 300 м
[]
+0.7 +0.7 100 986.5 972.7
12 км слаб. ливневой снег 9/0 300 м
[]
+0.7 +0.6 99 987.1 973.3
6000 м слаб. ливневой снег 9/0 200 м
[]
+0.2 987.8 974.0
50 км в посл. час переохл. осадки (гололёд) 9/0 300 м
[]
+0.7 +0.2 96 988.3 974.5 +0.2 +5.2 <0.5
50 км 9/0 300 м
[]
+0.3 -0.4 95 988.9 975.0
50 км 9/0 300 м
[]
+0.5 -0.6 92 989.1 975.2
50 км 9/0 300 м
[]
+0.4 -0.4 94 989.3 975.5
50 км 9/0 300 м
[]
+0.5 -0.1 96 989.1 975.3
50 км 8/0 300 м
[]
+0.2 +0.2 100 988.7 974.8
50 км 8/4
[]
0.0 988.3 974.5
35 км 9/0
[]
-0.1 987.7 973.8
7000 м слаб. снег 9/9 100 м
[]
0.0 986.6 972.8
13 км слаб. ливневой дождь 9/0 600 м
[]
+0.5 985.4 971.6
1200 м слаб. снег 9/0 50 м
[]
+0.4 983.8 970.0 0.8
1900 м слаб. снег 10/0 50 м
[]
+0.4 981.9 968.1 1
4400 м переохл. дождь (гололёд) {снег} 10/0 50 м
[]
+0.5 979.9 966.1 -0.3 +0.8 0.8
2800 м слаб. дождь 10/0 100 м
[]
+1.5 978.0 964.4 0.5
2900 м слаб. дождь 10/0 50 м
[]
+2.8 975.9 962.3 0.8
5000 м дождь {морось} 10/0 50 м
[]
+4.7 974.5 961.1 0.9
3800 м слаб. дождь 10/0 100 м
[]
+5.6 973.8 960.5 1
4200 м ливневой дождь 9/0 200 м
[]
+5.8 974.1 960.7 0.5
12 км слаб. дождь 9/0 300 м
[]
+5.6 974.6 961.2 0.8
16 км 10/0 300 м
[]
+5.1 +5.1 100 975.3 961.8
15 км 9/0 300 м
[]
+4.9 +4.9 100 975.6 962.2
14 км туман на расстоянии {ливн. осадки, дождь} 10/0 600 м
[]
+4.7 +4.2 97 976.0 962.6
6000 м слаб. ливневой дождь 10/0 600 м
[]
+4.5 +4.2 98 976.4 962.9 0.1
н/о 9/0 300 м
[]
+4.0 +3.7 98 977.0 963.5 +0.5 +6.0 0.1 <0.5
25 км 9/0 300 м
[]
+4.2 +3.5 95 977.5 964.0
21 км слаб. ливневой дождь 9/0 300 м
[]
+4.5 +4.1 97 979.0 965.4 0.3
21 км слаб. ливневой дождь 9/0 300 м
[]
+4.6 +3.8 95 979.8 966.3 0.1
12 км слаб. ливневой дождь 9/0 300 м
[]
+4.5 +4.5 100 980.5 967.0 0.6
7000 м слаб. дождь 9/0 300 м
[]
+4.7 +4.7 100 981.3 967.7 0.6
21 км слаб. ливневой дождь 9/0 300 м
[]
+4.4 982.3 968.7 0.4
8000 м ливневой дождь 10/0 300 м
[]
+4.1 983.1 969.5 0.8
26 км 9/0 300 м
[]
+4.4 983.9 970.3
25 км слаб. дождь 9/0 200 м
[]
+3.8 985.1 971.5 0.2
11 км слаб. дождь 10/10 200 м
[]
+4.1 986.3 972.7 0.3
7000 м слаб. дождь 10/0 100 м
[]
+4.0 987.1 973.5 0.3
12 км слаб. дождь 9/0 100 м
[]
+4.2 987.7 974.1 +3.7 +4.8 0.7
3500 м ливневой дождь 10/0 200 м
[]
+2.9 989.4 975.7 2
12 км слаб. дождь 10/0 100 м
[]
+1.3 990.9 977.1 2
6000 м ливневой дождь 10/10 100 м
[]
+1.2 992.1 978.2
11 км ливневой дождь 9/9 100 м
[]
+0.8 993.3 979.4
16 км слаб. ливневой снег 9/0 600 м
[]
+0.2 993.9 980.0 0.1
35 км слаб. снег 9/5 100 м
[]
0.0 994.7 980.8
30 км осадки 9/9 200 м
[]
+0.1 995.9 981.9
50 км в посл. час снег 9/0 200 м
[]
-0.1 997.2 983.2
50 км {ливн. осадки, снег} 9/9 200 м
[]
-0.9 -0.9 100 998.3 984.2
45 км в посл. час зёрна 9/9 200 м
[]
-1.4 -1.6 99 999.2 985.1
50 км в посл. час осадки 9/0 300 м
[]
-1.8 -2.1 98 1000.6 986.5
35 км {ливн. осадки, снег} 9/0 300 м
[]
-1.9 -2.2 98 1001.8 987.7 -1.9 +4.4 <0.5
35 км слаб. ливневой снег 10/0 200 м
[]
-2.2 -2.3 99 1003.2 989.0
50 км 10/0 300 м
[]
-2.4 -3.2 94 1004.9 990.6
50 км {ливн. осадки, снег} 10/0 300 м
[]
-2.8 -4.0 91 1006.7 992.4
50 км 5/0 300 м
[]
-3.1 -4.0 93 1008.1 993.8
50 км 9/0 600 м
[]
-2.8 -4.2 90 1009.1 994.8
50 км {ливн. осадки, снег} 9/0 300 м
[]
-2.6 -4.0 90 1010.2 995.9
50 км 9/0 300 м
[]
-2.8 -4.2 90 1011.5 997.1
50 км 9/0 300 м
[]
-3.0 -4.0 93 1012.8 998.4
50 км ясно -4.0 -4.4 97 1014.0 999.6
50 км ясно -4.6 -4.6 100 1015.1 1000.6
45 км ясно -5.3 -5.3 100 1015.7 1001.2
45 км ясно -5.6 1016.4 1001.9 -5.6 -2.0
50 км ясно -6.0 1016.9 1002.3
45 км ясно -6.5 -6.5 100 1017.1 1002.5
45 км ясно -6.6 -6.6 100 1018.0 1003.3
45 км 9/0
[]
-6.1 1017.9 1003.3
40 км 8/0
[]
-6.1 1017.6 1003.0
40 км 9/0
[]
-5.1 1017.4 1002.8
40 км 9/1 300 м
[]
-4.8 1017.1 1002.6
30 км 9/4 300 м
[]
-3.7 1016.6 1002.2
30 км 9/9 300 м
[]
-2.9 1016.2 1001.8
30 км 9/4 300 м
[]
-2.3 1015.6 1001.2
24 км 9/0 200 м
[]
-1.8 1014.8 1000.5
35 км 9/0 200 м
[]
-1.2 1014.0 999.7 -6.7 -1.2 <0.5
40 км 10/0 200 м
[]
-0.6 -0.6 100 1013.2 998.9
40 км 10/0 200 м
[]
-0.3 -0.3 100 1012.6 998.3
50 км 9/6 300 м
[]
+0.1 -0.5 96 1011.7 997.5
50 км 9/5 300 м
[]
+0.4 -0.7 92 1010.8 996.6
50 км 9/0 300 м
[]
+0.7 -0.3 93 1009.9 995.8
45 км 10/0 300 м
[]
+1.0 0.0 93 1009.1 995.0
7000 м слаб. снег 10/0 300 м
[]
+1.1 +0.6 96 1008.7 994.6
1900 м слаб. снег 10/0 200 м
[]
+0.6 1008.6 994.5 0.2
2000 м слаб. снег {дождь} 10/0 100 м
[]
+0.4 1008.8 994.6 0.6
2300 м слаб. ледяной дождь 10/0 100 м
[]
+0.4 1008.8 994.7 0.7
3500 м слаб. снег 10/0 100 м
[]
+0.5 1009.0 994.9 0.5
4200 м переохл. дождь (гололёд) {снег} 10/0 100 м
[]
+0.6 1009.0 994.9 -1.3 +1.2 0.4
Местоположение метеостанции Нурмиярви (Финляндия): широта 60.51 долгота 24.65 высота над уровнем моря 111 м.
В архиве по умолчанию представлена погода в Нурмиярви за последнюю неделю. Архивные данные за месяц целиком и за предыдущие месяцы, начиная с января 2011 года, Вы можете получить, выбрав интересующий диапазон дат из раскрывающегося списка и нажав кнопку "Найти!".
*Определитесь, кто Вы:
Внимание! Время в таблицах - всемирное. Для получения местного времени необходимо прибавить поправку, которая равна 1 ч.
Смотрите также архив погоды в соседних городах и на ближайших метеорологических станциях:
Партнеры нашего сайта:      
Пояснения к столбцам:
  • Ветер - указаны скорость ветра в м/с - средняя за 10 мин, порывы в срок и между сроками (в фигурных скобках) и направление, откуда дует ветер: С - северный,
  • СВ - северо-восточный, В - восточный, ЮВ - юго-восточный, Ю - южный, ЮЗ - юго-западный, З - западный, СЗ - северо-западный.
  • Видимость - горизонтальная дальность видимости в метрах или километрах. При видимости от 1 до 10 км при отсутствии осадков обычно наблюдается дымка, при ухудшении видимости до 1 км и менее - туман. В сухую погоду видимость может ухудшаться дымом, пылью или мглою.
  • Явления - указаны атмосферные явления, наблюдавшиеся в срок или в последний час перед сроком; фигурными скобками обозначены явления, наблюдавшиеся между сроками (за 1-3 часа до срока); квадратными скобками обозначены град или гололедные отложения с указанием их диаметра в мм.
  • Облачность - указаны через наклонную черту общая и нижняя облачность в баллах и высота нижней границы облаков в метрах; квадратными скобками обозначены формы облаков: Ci - перистые, Cs - перисто-слоистые, Cc - перисто-кучевые, Ac - высококучевые, As - высокослоистые, Sc - слоисто-кучевые, Ns - слоисто-дождевые, Cu - кучевые, Cb - кучево-дождевые. Подробнее классификацию облаков см. в Атласе облаков (PDF).
  • T - Температура воздуха - температура, измеренная на высоте 2 м над землей.
  • Td - Температура точки росы - температура, при понижении до которой содержащийся в воздухе водяной пар достигнет насыщения.
  • f - Относительная влажность воздуха - влажноcть воздуха, измеренная на высоте 2 м над землей.
  • Te - Эффективная температура - температура, которую ощущает одетый по сезону человек в тени. Характеристика душности погоды. При расчете учитывается влияние влажности воздуха и скорости ветра на теплоощущения человека.
  • Tes - Эффективная температура на солнце - температура, которую ощущает человек, с поправкой на солнечный нагрев. Характеристика знойности погоды. Зависит от высоты солнца над горизонтом, облачности и скорости ветра. Ночью, в пасмурную погоду, а также при ветре 12 м/с и более поправка равна нулю.
  • P - Атмосферное давление - приведенное к уровню моря атмосферное давление.
  • Po - Атмосферное давление - измеренное на уровне метеостанции атмосферное давление.
  • Tmin - Минимальная температура - минимум температуры воздуха на высоте 2 м над землей.
  • Tmax - Максимальная температура - максимум температуры воздуха на высоте 2 м над землей.
  • R - Количество осадков - Количество выпавших осадков за период времени, мм. При наведении курсора мыши на число - период времени, за который выпало указанное количество осадков.
  • R24 - Количество осадков - Количество выпавших осадков за 24 часа, мм.
  • S - Снежный покров - Высота снежного покрова, см. При наведении курсора мыши на число - состояние снежного покрова и степень покрытия местности в баллах.